Theta_e
303 304 305 304 304 304 304 303 304 305 307 308 308 310 311 312 314 314 313 313 313 312 312 312 313 313 313 315 315 315 315 315 315 317 316 319 333 344 346 346 346 344 341 338 343 346 344 344 343 342 341 340 341 341 340 340 341 340 341 341 341 341 340 340 340 340 340 339 339 339 339 340 340 340 338 336 335 332 330 332 331 330 330 329 328 327
304 304 304 303 303 304 304 304 304 305 306 306 307 307 309 310 312 313 313 314 313 312 312 312 313 313 314 314 315 315 315 315 314 315 316 316 328 343 346 345 346 344 343 344 347 348 346 345 344 343 342 341 340 340 341 341 341 341 341 341 341 341 340 340 341 341 339 339 338 338 339 340 340 339 337 336 335 333 332 332 331 331 332 331 329 327
304 304 303 303 304 303 304 304 304 305 305 306 306 306 307 308 310 311 312 312 314 313 313 313 312 312 314 314 315 315 315 315 315 315 317 316 321 336 345 345 346 346 345 346 347 348 347 345 345 344 343 342 340 340 341 342 342 342 342 342 341 341 340 340 341 340 339 339 338 338 338 339 340 339 336 336 335 334 333 333 332 333 334 333 331 328
304 303 303 303 304 304 304 304 304 304 305 305 306 306 306 307 309 311 312 312 313 313 314 313 313 313 314 314 315 315 314 315 316 315 317 316 317 327 339 345 346 347 347 347 347 348 347 346 346 345 344 343 342 341 342 343 343 343 342 342 341 341 340 340 341 340 339 339 339 339 338 339 339 338 336 336 337 336 335 335 334 334 335 334 333 331
303 303 303 303 304 305 304 304 304 304 304 304 305 306 306 306 307 310 311 312 312 312 313 313 313 313 314 314 315 314 314 316 315 315 316 317 317 318 327 342 347 346 347 346 347 348 347 346 346 345 345 344 343 342 342 343 343 342 342 342 341 341 340 339 340 340 339 338 338 339 339 339 338 337 336 337 337 337 336 336 334 334 335 335 334 333
303 303 303 303 304 304 304 304 304 304 304 304 304 305 306 306 307 308 309 311 312 313 313 313 312 314 316 314 314 315 315 316 316 316 316 316 318 315 320 337 347 346 345 344 345 347 348 347 346 345 345 344 343 343 343 343 343 342 342 343 342 341 340 340 340 340 340 339 338 339 338 337 338 337 336 337 337 336 336 335 334 334 335 334 334 332
303 303 303 303 303 303 303 304 304 304 304 303 304 305 306 307 307 307 308 310 313 312 313 312 312 316 320 315 314 315 315 316 316 316 316 315 316 316 316 328 342 346 346 345 345 346 347 347 345 345 345 344 344 344 344 343 342 341 342 343 342 341 340 339 339 339 339 339 337 337 336 336 337 336 336 336 336 336 335 334 334 335 335 333 333 331
303 304 304 303 303 303 303 303 303 304 303 303 304 305 306 307 307 307 307 308 310 311 312 312 311 314 316 314 315 316 314 315 316 316 317 315 315 317 315 322 335 344 346 346 346 347 347 346 346 345 345 345 344 344 344 343 341 340 341 341 341 341 340 339 339 338 338 338 337 336 336 336 337 336 335 334 335 335 334 334 334 335 335 333 332 331
303 303 304 303 303 303 303 303 303 304 303 304 304 306 306 307 308 308 307 307 308 311 312 312 312 312 313 315 316 315 314 315 316 316 316 316 315 316 316 319 329 340 345 346 346 346 346 346 345 344 344 345 345 344 343 341 339 339 340 341 341 340 339 339 338 338 338 337 336 336 336 337 337 336 334 334 334 335 334 334 334 335 334 332 331 331
303 303 303 303 303 303 303 304 304 304 303 304 305 305 305 306 307 308 308 308 308 311 312 311 312 312 313 317 317 315 315 315 315 316 316 316 315 316 316 318 328 340 345 345 345 345 346 345 345 345 345 345 344 343 341 339 338 339 341 341 341 340 339 339 338 338 337 336 336 336 336 336 336 335 335 334 334 334 334 334 334 334 333 332 331 330
303 304 303 303 303 303 304 304 304 304 304 304 305 304 304 305 306 308 310 309 309 311 311 311 312 313 314 317 315 315 315 315 316 316 316 316 315 316 316 319 331 342 345 345 345 345 345 345 345 345 345 344 344 342 341 339 339 340 342 342 342 340 339 339 337 337 336 336 336 336 336 336 335 334 334 334 334 334 334 334 334 333 332 332 331 330
303 303 303 303 303 304 305 305 305 305 305 305 305 304 306 306 307 308 310 311 311 311 310 310 311 312 314 315 314 316 316 316 317 316 316 316 315 315 316 320 332 342 345 346 346 346 346 345 346 345 345 344 343 342 341 340 340 341 343 342 341 340 339 339 337 335 336 336 337 337 336 337 336 334 334 334 335 335 334 334 334 333 332 332 331 331
303 302 302 302 303 304 305 305 305 305 306 305 305 305 306 308 310 311 311 311 311 310 310 311 312 313 314 315 316 317 317 316 317 316 316 316 315 316 316 323 335 342 344 346 345 346 345 345 345 345 344 344 343 342 342 341 342 342 342 342 341 339 339 340 337 335 337 337 338 338 338 338 336 334 334 335 335 335 334 333 333 333 332 332 332 331
303 303 302 301 302 303 304 305 304 305 305 305 305 305 306 308 311 312 311 311 310 310 310 310 312 314 313 315 318 317 316 317 315 316 316 316 316 316 317 326 338 343 344 346 345 345 345 345 345 344 343 343 342 342 342 342 342 342 342 342 340 339 340 340 337 335 337 338 338 338 338 338 336 335 335 335 335 334 334 333 333 333 333 332 331 330
303 304 304 302 302 303 304 304 305 305 305 305 305 305 306 307 310 312 311 310 310 310 311 311 314 317 316 319 322 317 316 315 315 317 316 316 316 317 319 328 339 344 344 345 345 345 345 345 344 344 343 343 342 342 342 342 342 341 342 342 341 340 341 340 336 335 337 337 338 338 337 338 336 334 335 335 334 333 333 333 333 333 333 332 331 330
303 303 304 303 303 303 303 303 304 305 306 306 306 306 307 306 309 312 313 314 316 316 314 315 317 319 319 323 323 317 317 316 315 317 316 316 317 318 325 334 340 344 345 344 345 345 345 345 344 343 343 343 342 342 341 341 341 341 341 341 341 341 341 340 336 334 336 336 337 337 337 337 336 334 334 334 334 333 333 333 333 333 333 332 331 330
305 305 306 306 305 304 304 304 304 305 306 307 306 307 308 307 308 311 314 319 322 318 318 318 317 317 317 319 320 316 317 317 316 317 316 315 317 322 331 337 341 343 344 344 344 345 345 344 343 343 342 343 342 342 341 341 340 340 341 341 341 341 341 340 337 335 335 336 337 337 337 337 335 334 334 334 333 333 333 334 333 333 333 332 331 331
307 306 306 306 306 305 304 305 304 304 306 308 308 308 309 309 309 310 313 317 319 317 320 320 316 315 316 321 323 317 316 318 316 317 317 316 318 327 335 339 341 343 344 344 344 344 344 344 343 343 343 343 342 341 340 339 339 340 340 340 341 341 341 340 337 335 336 336 336 336 337 336 335 335 334 333 333 333 333 333 333 333 332 331 330 331
307 305 306 306 305 305 305 306 305 305 305 308 309 309 313 315 312 311 312 314 316 317 318 318 317 315 314 320 323 317 315 318 317 316 317 317 321 328 336 340 341 343 343 344 344 344 344 344 343 343 343 343 342 341 340 339 339 340 340 341 342 341 341 339 337 336 336 336 336 336 336 335 334 334 334 333 333 332 332 333 332 332 331 330 330 331
309 307 308 308 308 307 307 307 307 307 306 306 307 309 313 314 312 312 313 312 315 318 318 318 318 318 317 319 320 317 317 318 317 318 317 318 322 328 335 340 341 343 343 343 344 344 344 344 343 343 343 342 341 340 340 340 339 339 340 341 342 341 341 339 337 336 336 336 336 336 336 335 334 334 334 333 332 332 333 332 331 330 329 329 331 332
309 308 308 309 310 309 308 308 307 308 308 308 308 309 311 312 311 313 314 312 314 319 322 320 319 323 326 323 319 317 318 317 317 319 319 319 324 329 335 339 341 343 343 343 343 344 343 344 344 344 343 342 341 340 340 340 339 340 341 342 341 341 340 339 337 336 336 337 336 337 337 335 335 334 334 333 332 332 333 332 331 330 330 330 331 332
309 308 307 310 311 310 309 309 307 309 310 310 310 311 311 312 312 313 316 317 314 316 323 325 324 328 328 323 320 317 317 319 318 318 320 321 324 331 336 338 341 342 342 343 343 343 343 343 344 343 343 342 341 340 340 340 340 341 342 342 341 341 340 338 337 337 337 337 337 337 337 336 334 333 333 332 332 333 333 333 332 330 330 330 331 331
308 309 309 310 311 310 311 311 310 311 312 311 311 312 312 313 313 313 317 321 318 315 321 323 323 329 331 327 324 320 320 320 316 318 321 321 325 333 336 338 341 342 342 343 343 343 343 344 343 343 342 341 340 339 339 340 341 342 341 342 341 341 339 338 337 338 338 337 336 337 337 336 334 333 332 332 331 332 333 333 332 330 330 331 331 331
308 309 310 310 310 310 311 313 314 315 316 314 313 312 312 312 313 313 314 316 317 315 318 318 320 330 340 337 329 323 322 320 316 318 320 321 327 334 336 338 341 342 342 342 343 343 343 343 343 342 341 340 339 338 340 340 341 342 341 341 342 340 339 338 337 338 337 336 335 336 336 336 334 333 332 331 331 332 333 333 331 330 330 331 331 331
310 311 311 311 310 309 310 312 314 315 315 315 314 312 312 312 312 314 314 314 317 318 317 317 320 331 342 339 331 326 322 319 318 319 319 322 328 333 336 338 341 342 342 342 342 343 342 342 342 341 340 340 338 338 339 340 341 341 341 341 341 340 339 338 337 337 337 336 335 336 335 335 334 332 331 330 330 332 332 331 330 330 331 332 331 330
312 313 312 312 313 311 312 314 314 314 313 313 313 312 313 313 312 314 316 316 319 320 319 318 320 327 335 334 328 325 324 321 321 320 321 325 330 334 337 338 341 341 342 342 342 342 342 342 341 340 339 337 337 338 339 340 341 340 340 341 340 340 338 337 337 337 336 336 335 334 333 333 332 331 330 330 331 332 331 330 330 331 331 331 330 329
314 316 314 313 314 313 313 313 314 315 314 313 313 313 313 314 313 314 316 317 319 321 322 324 322 322 329 334 332 327 324 323 325 324 325 329 333 336 337 338 340 341 341 342 342 342 342 342 341 340 338 337 337 338 338 339 340 340 340 340 340 339 338 337 336 336 336 335 334 333 332 333 332 331 330 330 331 331 330 330 330 331 331 331 330 329
317 316 315 315 315 314 313 313 313 315 315 314 314 314 314 315 315 314 316 318 320 320 324 330 329 326 330 338 339 335 328 324 326 327 327 331 335 336 338 339 340 340 341 341 341 342 341 341 341 340 339 338 338 338 338 339 339 339 340 339 339 338 337 336 336 336 335 334 333 333 332 332 332 331 330 330 331 331 330 330 330 331 331 330 329 329
318 316 316 316 315 315 314 314 314 315 316 316 316 317 316 317 317 317 317 318 320 322 325 331 333 333 336 338 339 341 338 330 325 326 329 333 336 336 337 338 339 340 340 340 341 341 341 340 341 340 339 338 338 338 338 338 339 339 339 339 338 337 336 336 336 335 335 334 333 333 332 331 331 331 330 331 331 331 330 330 330 331 330 329 328 328
317 319 318 315 315 317 315 315 315 315 315 315 316 317 318 318 318 317 317 317 319 321 325 331 337 338 338 336 335 336 334 329 325 327 332 334 336 337 338 339 339 339 340 340 340 340 340 341 340 339 338 338 338 338 338 338 339 339 339 339 338 337 337 336 335 335 334 334 333 333 332 330 330 331 331 331 331 331 331 330 331 330 329 328 328 326
316 318 318 315 317 319 316 316 316 316 316 316 316 317 316 317 319 318 319 320 320 322 326 332 338 339 336 333 334 331 327 328 330 332 333 336 337 338 338 338 339 340 340 340 340 340 340 340 339 338 338 338 338 338 338 337 338 339 338 338 337 337 337 336 335 335 334 334 334 334 332 331 330 331 331 331 331 331 330 331 331 330 328 327 327 325
317 317 318 317 318 320 319 317 317 319 319 317 318 318 316 318 321 319 320 322 323 324 329 334 336 338 335 332 334 333 331 333 336 334 334 336 338 338 339 339 339 340 340 340 340 340 340 339 339 339 338 338 338 338 337 337 338 337 337 337 337 337 336 335 334 335 334 333 333 334 333 331 330 331 331 331 330 331 331 331 330 329 328 327 326 324
318 318 319 318 319 321 319 316 319 323 321 319 321 322 320 320 321 319 321 326 327 328 332 337 338 339 336 333 336 337 336 336 336 335 335 337 338 338 339 339 339 339 340 340 340 340 340 339 339 339 339 338 338 338 337 337 337 337 337 337 336 336 335 335 335 335 335 334 334 334 333 332 330 330 331 332 331 331 331 331 330 328 328 327 326 325
319 320 319 317 319 322 318 316 322 324 321 321 323 323 321 321 321 321 324 328 329 329 331 335 338 339 336 335 338 339 337 334 333 333 335 337 338 338 339 339 340 340 340 340 340 339 340 340 339 339 339 338 337 337 337 337 337 337 337 336 336 336 335 335 336 336 335 335 335 334 333 332 330 330 331 331 331 330 330 330 329 328 327 326 325 325
321 320 318 317 318 320 319 319 321 320 319 321 321 321 321 320 320 322 325 325 325 327 330 332 334 336 336 334 334 334 332 331 332 332 335 338 338 339 339 339 339 340 340 340 340 340 340 339 339 339 338 338 337 337 337 337 337 337 337 336 336 336 335 335 336 337 336 336 335 334 333 332 331 330 330 331 330 329 329 329 329 328 327 326 325 325
322 319 318 318 317 319 320 319 317 318 320 320 320 320 320 319 320 324 325 324 325 326 328 332 333 332 334 332 330 331 330 330 331 332 333 337 338 338 338 339 339 339 340 340 340 340 340 339 339 339 338 338 337 336 336 337 337 337 337 337 336 336 336 335 335 336 336 336 335 334 333 331 330 330 330 330 329 328 328 329 329 328 327 327 325 325
321 319 318 318 317 318 319 319 319 320 321 321 320 319 317 316 321 325 324 325 329 327 325 330 332 329 330 330 328 329 330 331 334 334 332 334 338 338 338 339 339 339 339 339 339 339 338 339 338 338 338 338 337 336 336 337 337 337 337 337 336 337 336 335 335 335 334 334 334 334 333 331 331 330 330 329 328 328 328 328 329 328 328 327 326 325
318 320 320 318 318 317 318 321 323 321 323 327 326 321 319 318 321 323 321 322 328 326 321 325 329 330 334 333 328 328 333 337 337 335 331 332 336 338 338 339 338 339 339 339 339 340 339 339 339 338 338 337 336 335 336 337 337 337 337 337 336 336 336 336 335 335 334 333 333 333 333 332 331 330 330 328 328 328 328 329 329 328 328 327 326 325
316 318 317 317 319 318 318 320 322 321 323 327 324 321 321 321 322 321 317 318 324 324 319 322 330 334 336 332 329 332 342 344 340 333 330 332 334 336 338 339 339 339 339 339 340 340 340 339 339 338 338 337 336 335 334 335 337 336 336 336 336 337 337 336 336 335 334 333 333 333 333 332 331 330 330 328 327 328 328 329 328 328 327 326 326 325
317 316 315 317 320 319 318 320 321 322 322 321 320 321 322 322 321 317 318 323 326 325 322 323 329 333 330 326 329 338 344 344 341 333 330 331 333 333 335 337 338 339 339 339 339 339 339 339 339 338 338 337 336 335 334 334 335 335 335 336 336 337 337 336 336 336 334 333 332 333 333 333 332 331 330 327 326 327 328 328 328 327 326 326 325 325
320 318 316 318 320 319 318 319 321 323 322 320 320 321 320 320 318 318 324 326 323 323 324 323 326 329 328 326 331 335 334 333 334 331 330 332 334 333 333 334 335 337 338 338 338 338 338 339 339 339 338 337 337 336 335 334 334 335 336 337 337 337 337 337 337 336 335 334 333 333 334 333 332 331 330 326 325 327 327 327 328 327 326 326 326 325
320 319 317 317 318 319 319 320 321 322 320 318 320 322 319 319 320 324 326 324 322 325 328 327 327 330 331 330 329 329 329 330 331 331 331 332 333 334 335 334 334 335 337 337 338 338 338 339 339 339 338 338 337 336 336 335 335 335 336 337 336 336 337 337 336 336 336 335 334 334 334 333 332 330 328 326 325 326 326 326 326 326 326 326 325 324
318 319 319 318 319 319 320 321 322 322 319 318 321 324 322 323 324 324 322 323 327 330 330 330 331 332 333 332 330 330 331 332 332 332 333 333 333 334 335 335 335 336 337 337 337 338 339 339 339 339 338 338 338 336 335 335 335 335 336 337 336 335 336 337 336 336 336 335 335 334 334 332 331 329 327 326 325 326 326 326 325 325 325 325 324 323
318 319 320 319 319 320 321 321 321 320 318 319 321 323 323 323 322 322 321 323 327 330 332 332 333 334 334 334 332 331 332 332 332 333 333 333 334 335 336 336 337 336 337 337 337 338 338 338 338 338 338 338 337 336 335 335 335 336 336 336 336 335 336 337 337 336 336 335 335 334 332 331 329 328 327 326 325 325 326 325 325 324 323 324 324 323
318 317 317 317 318 319 320 321 320 318 318 320 321 321 322 322 322 322 323 322 324 329 333 333 333 334 335 334 333 332 332 331 332 332 332 332 334 335 336 336 336 336 337 336 336 336 336 336 336 336 336 337 336 335 335 334 335 335 334 333 335 336 336 336 336 336 335 335 333 332 331 330 329 328 327 326 325 325 325 325 325 324 323 324 323 322
318 316 315 316 318 319 319 320 319 318 319 321 322 321 321 322 322 322 323 323 322 326 333 334 334 334 334 333 334 333 331 331 331 331 331 331 333 335 336 334 334 335 336 336 336 336 336 336 336 335 334 335 336 336 335 335 335 335 333 332 334 335 336 336 336 335 334 333 332 331 331 330 329 328 327 326 325 325 325 325 325 324 324 324 322 321
318 317 317 318 319 320 321 321 320 320 321 321 321 322 322 321 321 322 324 324 322 324 331 334 333 333 334 334 334 332 331 331 331 330 330 331 333 334 335 333 333 334 335 335 335 336 336 336 335 333 333 335 336 336 335 336 336 334 332 332 334 335 335 335 335 335 333 333 332 331 330 330 329 328 326 325 325 324 324 324 324 324 324 324 323 322
318 318 319 320 319 319 321 321 320 319 320 320 321 322 321 321 322 322 324 325 323 323 329 331 332 333 333 333 333 333 332 331 330 329 329 331 332 333 332 332 333 334 334 335 335 335 335 335 334 333 333 335 336 335 335 336 336 335 334 334 334 334 334 334 334 333 333 332 332 331 331 330 329 328 327 326 325 325 325 325 325 324 325 325 324 324
317 317 319 319 319 319 321 321 320 320 321 320 321 321 321 322 322 323 324 325 323 324 328 330 330 331 331 331 332 332 331 330 330 330 330 331 333 332 331 333 334 333 333 334 334 334 334 334 333 334 335 335 335 335 336 336 335 335 335 335 334 333 333 333 333 332 333 332 331 331 330 329 329 328 327 327 327 327 326 326 326 326 326 325 325 325
317 319 320 318 316 318 320 321 321 321 322 321 320 321 321 321 322 324 324 324 324 325 328 330 330 330 330 330 330 330 331 331 332 331 332 333 333 332 332 333 333 333 332 333 333 333 333 333 333 334 334 334 334 334 335 335 334 335 335 335 334 333 333 333 332 332 332 331 330 330 329 328 328 327 327 327 327 327 326 326 325 325 325 325 324 323
317 319 319 317 316 317 319 320 320 320 320 320 320 321 321 321 321 323 323 324 325 327 328 329 330 329 329 330 330 331 332 332 332 332 333 333 333 332 332 333 332 332 333 332 333 334 334 333 333 333 334 334 334 334 334 334 334 334 334 333 333 333 333 332 332 331 330 330 329 329 328 327 327 327 326 326 326 326 326 325 325 324 323 323 323 322
Wind_Speed
8 4 3 6 8 9 8 7 8 5 4 5 5 4 6 6 7 7 7 10 10 9 10 14 15 11 13 14 13 19 18 16 20 23 24 21 28 35 36 38 40 42 45 43 42 44 44 43 42 40 39 38 37 36 34 34 34 33 31 29 27 29 33 34 31 27 28 29 28 28 28 28 27 26 26 23 21 20 21 21 20 19 19 18 18 17
4 5 8 12 11 9 6 4 4 4 5 7 6 5 7 6 6 8 8 9 10 10 9 10 13 13 14 14 14 20 17 12 15 17 22 23 28 34 37 39 41 41 40 38 40 43 44 43 43 42 41 40 38 36 35 36 35 34 31 29 28 30 34 36 33 30 30 30 31 31 30 28 27 27 26 24 21 21 22 22 20 19 18 18 18 17
2 6 14 13 8 5 5 5 4 5 6 7 6 5 7 6 5 9 11 11 9 10 9 7 10 13 14 13 13 17 18 20 24 21 25 28 25 33 37 38 40 38 36 37 40 43 45 44 43 43 43 41 38 36 37 37 35 34 32 30 29 29 33 37 36 33 31 30 31 30 28 27 28 27 25 24 22 22 22 21 19 18 17 17 17 17
4 8 8 5 4 5 6 7 6 6 6 6 5 5 7 7 5 6 8 11 10 8 9 7 7 7 10 12 12 18 24 28 33 29 28 32 30 33 39 39 39 39 38 40 42 44 44 44 44 44 44 43 40 38 39 38 36 34 32 32 32 30 32 37 38 36 33 30 30 29 27 26 27 27 26 25 24 23 22 22 20 19 18 17 17 17
10 9 3 2 5 8 8 8 7 6 5 6 7 7 6 8 9 7 7 10 10 9 9 8 6 5 9 14 13 15 20 23 32 31 25 29 34 33 38 43 42 43 45 45 45 45 45 45 45 45 45 44 42 41 40 40 37 33 32 33 33 32 32 36 39 37 34 32 31 31 29 28 28 29 29 28 28 27 25 23 22 20 19 18 17 17
11 13 8 5 6 8 9 9 8 6 5 6 8 8 8 10 10 10 12 10 7 7 7 7 8 7 7 14 14 12 12 14 22 25 22 28 31 26 30 39 41 43 47 49 49 49 49 48 47 46 46 45 44 43 41 39 35 31 32 34 34 33 32 36 39 38 35 34 35 35 34 32 32 33 33 31 30 29 26 24 22 21 20 19 18 17
7 10 10 9 9 9 9 8 8 8 5 5 5 7 9 11 11 13 15 10 3 5 7 5 8 6 4 9 13 12 13 15 16 17 21 28 30 25 25 33 38 41 44 47 50 52 52 50 49 48 48 47 46 44 41 37 33 31 33 34 34 33 33 36 39 39 36 35 36 37 35 35 35 36 35 32 30 28 25 23 22 21 20 19 18 18
4 7 7 9 10 9 7 6 8 9 7 6 5 6 9 11 12 15 15 9 4 6 10 10 9 6 6 8 10 12 15 16 16 18 20 25 30 28 25 30 38 44 45 45 47 51 53 53 52 51 50 49 47 45 41 36 32 32 34 34 34 33 33 37 39 39 37 37 38 37 36 35 35 35 33 30 29 26 25 24 23 21 20 19 18 18
2 5 6 7 8 6 6 6 7 8 7 6 6 7 9 10 11 13 12 8 6 5 9 12 9 6 8 6 7 13 17 18 20 21 20 22 29 30 27 30 38 44 46 47 49 52 54 55 54 53 51 50 48 45 40 34 32 34 35 35 34 32 33 36 39 39 38 38 38 38 37 35 34 33 31 29 28 26 24 24 23 22 21 20 19 18
2 6 6 5 5 4 6 6 6 6 6 6 8 8 8 9 10 10 8 6 6 5 9 14 9 5 6 4 6 12 16 19 19 18 17 20 29 33 31 32 38 43 46 49 52 55 56 56 55 53 51 51 49 44 37 33 33 35 36 35 34 32 31 35 39 40 39 38 39 38 37 35 34 33 31 29 27 26 25 24 24 23 22 21 20 19
10 13 11 4 4 5 5 5 5 5 4 5 7 7 7 9 8 8 6 4 4 7 12 18 13 6 5 5 8 11 12 14 14 13 13 15 25 33 33 32 38 43 47 50 53 54 54 52 52 52 52 51 47 42 37 34 35 37 38 36 34 31 30 33 38 40 39 38 38 37 36 34 32 32 32 30 28 27 25 24 24 23 22 21 20 20
10 13 10 6 9 8 5 4 4 3 3 4 4 5 4 6 5 5 5 5 5 9 13 18 15 9 8 7 8 9 10 13 14 14 15 13 20 31 33 35 41 45 48 51 51 50 48 47 48 50 51 50 46 41 38 37 37 38 38 37 34 32 31 33 37 40 39 38 36 35 35 33 31 30 30 30 28 27 25 25 24 23 22 21 21 21
6 8 7 6 10 8 4 3 3 3 2 3 4 4 4 4 3 4 4 5 7 10 11 13 10 9 11 7 7 10 12 16 16 16 18 18 23 30 33 37 43 46 49 51 50 49 48 48 49 50 50 49 45 42 40 39 39 38 38 38 35 32 32 34 37 40 39 38 37 35 34 33 31 30 29 28 27 26 24 24 24 23 23 22 22 21
3 6 6 7 6 7 7 4 3 3 4 6 5 5 6 5 5 6 5 6 9 9 10 11 7 7 8 5 9 13 13 17 20 23 27 31 33 33 34 39 44 46 50 51 50 50 50 51 52 52 50 48 45 43 42 40 40 39 39 39 36 33 33 34 38 41 40 38 36 35 34 33 31 30 29 28 26 24 23 23 23 23 22 22 22 21
4 5 5 6 5 8 9 7 6 4 3 6 6 6 7 6 4 5 6 7 6 4 9 11 7 5 5 5 10 13 12 18 25 32 36 39 39 36 35 39 42 45 48 49 50 51 52 53 52 52 50 47 45 43 42 42 40 40 40 40 38 36 35 35 39 42 41 38 36 34 34 33 32 31 30 28 26 23 23 22 22 22 22 22 22 20
5 6 6 8 8 10 10 10 10 6 4 5 5 5 8 8 6 3 4 6 4 2 7 7 5 6 5 5 9 12 15 19 24 29 33 34 34 32 32 36 40 43 46 47 49 50 51 52 52 51 50 48 45 43 43 42 41 41 41 41 40 38 37 36 39 42 42 39 36 34 34 33 32 31 30 29 26 23 22 21 21 21 21 21 21 21
4 6 4 6 8 9 11 13 13 11 6 4 5 8 9 9 7 4 5 3 5 5 6 4 5 6 5 6 9 16 19 20 19 21 23 25 27 28 30 34 39 43 46 48 49 50 50 51 51 51 51 49 46 44 44 42 41 41 42 42 41 40 38 38 39 41 41 39 37 35 33 33 32 31 30 28 25 23 22 21 20 20 20 20 21 21
4 5 4 6 8 11 14 15 15 17 13 4 5 8 7 8 8 4 4 4 4 6 5 4 6 6 5 6 7 15 21 21 19 17 17 18 22 26 30 36 41 46 49 50 50 51 51 52 52 52 51 49 46 44 43 41 41 42 42 42 42 41 40 40 41 41 40 39 37 35 35 33 32 31 29 27 24 22 21 20 19 19 20 20 20 20
4 4 6 7 9 12 12 10 10 17 20 13 6 4 2 4 6 4 4 6 4 5 4 4 6 7 7 6 6 13 18 18 16 15 15 15 17 23 31 37 42 45 47 47 48 50 52 53 53 52 51 49 46 44 42 42 42 42 42 42 42 41 40 40 41 40 39 37 36 36 35 33 32 31 28 26 23 21 20 19 19 19 20 20 20 20
3 2 3 3 4 6 5 7 7 10 17 16 11 6 2 3 3 4 6 7 5 4 3 5 5 5 7 7 9 13 15 15 13 11 13 14 18 26 33 36 39 42 44 46 48 50 52 52 52 52 51 48 46 44 44 44 43 43 43 43 42 40 40 40 40 40 38 36 36 35 34 33 32 31 28 25 23 21 20 20 20 19 19 19 19 20
3 1 4 1 1 3 3 7 9 8 9 10 9 7 5 4 3 3 5 6 5 3 3 5 5 5 5 6 11 15 15 15 13 12 12 13 22 33 37 38 41 43 45 48 50 50 50 51 51 51 50 48 46 46 45 44 43 43 44 44 42 41 41 40 39 39 38 36 36 35 34 33 32 30 28 26 23 21 21 21 20 19 18 19 20 20
3 2 5 4 1 2 3 5 10 9 7 7 7 8 6 5 4 3 4 4 4 5 4 5 4 7 5 5 9 14 15 14 13 14 11 14 26 35 39 43 46 46 47 49 51 50 49 49 50 49 48 47 47 47 46 45 44 45 45 44 43 42 42 41 40 39 38 36 35 34 34 34 32 31 29 27 24 23 22 22 21 19 19 20 21 21
5 2 5 7 4 3 3 4 8 9 7 6 6 6 5 5 5 4 4 3 3 5 4 2 3 7 6 7 9 11 12 12 14 16 13 16 29 36 38 43 46 47 50 51 50 50 49 50 50 48 47 46 47 47 46 45 46 46 46 44 44 44 43 42 41 39 38 36 35 34 34 33 32 31 29 27 26 24 23 22 21 20 20 21 21 21
6 2 4 6 3 2 5 5 5 5 4 3 5 5 5 6 6 5 4 3 4 6 6 3 3 7 7 5 7 9 9 10 14 19 19 18 27 36 39 41 42 44 47 49 48 49 49 50 49 48 47 46 46 46 46 46 46 46 45 44 44 44 43 42 41 40 38 36 35 34 34 33 32 31 30 28 26 25 24 23 21 21 21 21 21 20
6 3 2 2 2 2 3 4 4 4 3 2 4 6 7 8 7 6 5 3 4 6 5 4 5 7 6 5 3 5 8 9 12 21 25 23 26 34 38 40 41 43 46 46 46 46 47 47 48 48 48 46 46 46 46 47 46 45 45 45 45 44 42 42 41 40 38 36 35 35 35 34 33 32 30 28 26 25 25 23 21 21 22 22 22 20
5 3 2 1 2 3 3 3 2 3 4 3 4 8 10 8 7 6 4 3 4 5 4 5 6 7 6 7 4 4 9 11 10 16 24 28 32 37 39 40 42 44 47 47 45 45 46 47 48 49 48 47 47 47 47 47 46 45 44 44 44 44 42 41 41 40 39 37 35 34 35 35 33 31 29 26 26 25 24 23 22 22 23 23 21 20
2 2 3 3 3 3 3 3 3 0 4 5 7 8 7 7 8 7 4 4 4 5 6 6 5 7 8 7 5 4 8 11 11 10 15 24 33 39 41 42 44 46 48 48 47 46 46 47 48 49 49 48 47 48 47 47 46 45 44 44 43 42 41 40 40 39 38 36 34 33 34 34 33 31 28 25 25 26 24 23 22 22 24 23 21 20
1 1 3 3 3 3 4 6 6 4 4 5 5 3 4 7 8 7 6 6 4 3 6 7 4 4 7 6 6 5 6 10 12 11 14 23 33 39 42 44 46 46 47 47 47 47 47 47 48 49 48 48 47 47 46 45 45 45 44 43 42 41 40 39 38 37 35 33 33 33 35 34 32 31 28 24 25 26 24 23 23 24 24 23 20 19
2 1 3 2 3 6 5 6 6 6 5 5 4 3 4 6 7 7 8 8 5 4 7 8 7 4 7 7 6 6 7 8 12 18 24 30 34 37 39 41 42 42 44 45 46 48 48 48 48 48 48 47 46 45 44 43 43 43 42 42 41 39 39 38 37 36 34 33 33 34 34 33 32 31 28 25 25 26 25 24 24 25 25 22 19 17
2 1 2 2 4 6 4 4 5 5 4 3 4 4 5 6 7 7 7 8 8 7 9 9 8 6 7 7 8 9 6 8 14 22 28 31 33 36 38 39 40 41 44 46 47 48 48 49 50 49 48 46 45 45 44 43 43 43 42 41 41 40 38 37 37 36 34 33 33 33 34 33 32 31 28 25 26 27 26 25 26 26 25 21 18 16
1 1 2 2 3 4 3 2 3 5 4 3 2 5 4 5 6 4 5 7 6 8 10 8 7 6 6 6 8 6 5 13 14 17 23 28 33 37 37 39 41 43 45 46 47 48 48 48 50 49 48 47 47 46 45 43 43 42 42 41 41 40 38 37 37 36 34 33 34 34 33 33 32 29 26 24 26 28 27 27 28 27 24 21 18 17
1 1 2 3 3 3 2 4 3 3 6 4 3 5 3 4 4 3 4 4 2 5 8 5 4 5 6 8 8 3 8 14 13 14 20 27 34 38 37 38 42 45 46 46 46 47 47 48 48 49 49 48 47 46 45 43 42 42 41 41 40 38 37 36 35 35 34 34 35 35 34 33 31 28 25 24 26 28 28 28 29 27 24 21 19 19
1 1 1 3 2 3 4 6 4 5 7 3 5 5 6 5 4 4 6 5 4 5 3 0 2 7 7 7 6 5 7 10 11 13 20 27 33 37 41 42 44 46 48 47 47 47 48 49 50 50 50 48 47 45 44 43 42 42 41 40 38 37 36 35 34 35 35 34 35 35 34 33 30 27 25 23 25 28 29 29 30 28 25 22 21 20
1 3 1 1 1 3 6 7 3 5 3 4 6 5 6 4 4 4 7 8 5 4 3 4 5 6 7 7 3 5 5 7 10 13 22 31 34 35 39 43 46 47 48 48 49 50 51 51 50 50 49 47 46 44 42 42 41 40 39 38 37 36 35 34 35 37 37 36 36 35 34 32 29 26 24 22 24 28 30 31 30 28 25 23 22 21
2 3 2 1 1 2 6 5 4 3 4 6 5 3 4 5 6 5 7 9 5 3 3 4 5 5 7 7 3 7 8 11 16 14 17 28 36 39 38 38 41 44 46 46 47 48 49 49 49 48 47 45 44 42 41 40 39 39 38 37 36 36 34 33 37 40 39 38 38 36 33 31 28 26 24 22 24 29 31 32 31 29 26 25 23 21
4 3 2 1 1 2 4 4 2 4 6 6 6 3 2 3 3 1 5 9 7 4 1 1 7 8 7 8 4 8 13 19 20 15 13 20 31 38 40 40 41 44 45 47 47 47 48 49 49 48 47 44 42 41 41 40 40 39 38 37 36 35 34 34 37 39 38 37 37 36 33 30 28 26 25 23 24 30 33 33 32 30 27 25 23 20
5 4 2 2 2 2 3 3 2 3 5 4 3 2 1 2 2 4 1 7 8 5 2 2 8 10 6 5 4 6 14 17 13 10 12 17 23 31 38 42 45 47 49 50 50 50 49 49 48 47 46 43 40 38 40 41 40 39 38 37 36 35 36 37 39 39 38 38 38 36 32 30 28 26 25 24 25 30 34 34 33 31 28 26 24 21
4 3 4 2 1 2 2 3 2 2 2 3 5 5 4 5 5 3 6 5 7 7 7 8 9 8 6 5 1 5 9 10 5 3 9 16 21 26 31 35 39 43 46 47 47 45 44 45 45 44 44 41 37 36 38 41 40 39 39 37 36 37 38 39 40 40 39 38 37 35 32 29 27 26 25 25 26 30 33 34 33 32 29 27 25 21
3 2 5 4 1 2 2 1 0 1 3 4 7 10 10 13 12 1 5 5 6 7 10 11 11 8 6 7 7 6 6 5 3 3 2 10 19 25 28 31 34 36 39 42 43 42 42 43 42 42 41 37 34 34 37 40 39 39 39 38 38 39 40 40 41 40 38 37 36 34 30 27 26 26 25 25 26 29 32 34 33 32 30 27 24 21
4 3 1 3 2 3 3 1 1 2 4 5 9 14 17 17 9 3 4 5 6 8 12 10 10 9 9 8 6 6 4 4 4 5 6 1 12 18 23 28 34 38 38 38 40 40 41 42 40 39 38 35 33 33 35 37 38 38 38 39 40 42 42 41 41 37 34 32 32 30 28 26 25 25 25 25 27 30 32 34 34 32 30 28 24 22
2 2 2 2 3 4 4 1 2 3 4 6 13 20 20 13 2 6 4 6 7 11 13 6 8 6 4 4 5 6 7 7 5 1 2 0 4 8 11 17 27 35 38 37 37 37 38 39 39 38 37 34 33 32 32 35 38 38 38 39 41 42 41 40 38 36 31 29 28 27 26 25 24 24 23 23 26 30 32 34 34 33 31 28 25 24
2 2 2 1 1 2 4 2 2 3 2 9 19 22 15 5 4 4 8 17 17 9 1 8 8 6 8 13 15 16 19 18 13 8 5 4 3 3 5 9 16 24 29 33 35 37 37 38 37 36 35 34 32 31 32 35 38 38 38 39 41 41 39 37 36 35 31 28 27 27 26 24 23 22 22 21 25 30 33 34 34 33 31 29 27 26
1 2 3 2 2 0 2 2 2 2 4 13 19 14 8 4 4 9 15 21 19 4 11 12 10 11 13 17 20 21 23 23 20 16 11 7 6 5 6 11 17 21 23 25 28 32 36 38 37 36 36 35 33 31 31 34 37 38 37 37 38 38 37 35 35 34 31 28 28 26 24 22 21 21 20 21 24 30 33 35 35 34 32 30 29 28
1 1 1 2 2 2 1 1 1 3 8 13 10 4 5 10 15 15 12 14 16 8 12 13 13 14 13 15 19 19 20 22 21 18 16 11 7 7 9 14 20 25 28 28 29 31 33 34 35 36 36 35 32 30 31 34 37 37 35 34 34 34 35 34 34 32 29 27 26 23 20 19 19 19 20 20 23 28 33 35 35 34 32 31 30 30
1 2 3 2 3 1 2 4 3 6 13 13 6 5 11 16 17 16 14 14 19 10 11 15 14 15 14 14 17 18 20 22 20 17 16 13 11 13 17 18 20 25 30 29 28 29 29 30 31 31 32 32 29 27 30 33 36 36 32 31 33 35 34 34 32 29 27 26 24 21 19 19 20 20 21 21 23 27 32 34 35 34 33 32 32 31
3 4 4 2 3 3 3 5 6 8 13 14 10 9 12 13 16 19 18 19 25 14 11 16 13 15 14 13 15 18 19 19 17 16 14 14 15 19 21 19 18 22 26 26 26 28 30 30 28 26 28 29 27 28 32 34 35 34 30 29 33 35 34 32 30 28 27 26 23 20 19 22 22 22 22 22 23 26 30 32 34 34 34 33 32 31
3 2 3 1 2 3 2 3 5 8 11 13 15 15 14 10 12 19 18 16 23 16 9 16 12 13 14 12 14 18 17 14 14 15 15 16 19 21 21 21 23 25 27 28 29 29 29 27 26 26 29 28 26 30 35 35 34 32 28 27 31 33 32 30 28 28 27 26 24 22 22 23 24 22 22 23 24 26 28 30 33 34 34 34 33 32
4 5 3 2 2 2 3 5 11 13 11 11 14 17 16 12 10 15 18 14 16 13 12 19 15 13 15 14 14 16 16 13 13 16 18 20 22 22 21 22 26 28 29 29 30 28 26 25 26 28 30 30 28 28 30 31 31 30 27 27 28 27 27 28 29 29 28 27 26 25 24 24 25 24 23 23 24 26 27 28 30 31 32 33 33 31
6 6 4 1 2 4 3 5 11 10 9 13 18 18 17 15 13 16 19 14 11 12 18 22 19 17 16 15 15 15 17 15 14 16 19 21 22 22 20 20 22 23 23 24 25 23 23 25 29 31 31 30 30 31 31 31 31 28 25 26 26 23 23 27 28 28 28 27 26 26 26 26 26 25 24 23 24 26 27 26 27 27 28 31 32 30
5 3 2 3 3 3 3 4 7 4 2 10 18 20 19 17 16 19 20 15 11 15 22 24 22 19 18 17 16 18 20 19 17 17 19 20 20 19 19 20 21 21 19 20 21 22 22 23 27 30 30 27 27 29 30 29 29 27 25 25 24 22 23 25 26 27 27 26 26 26 27 27 27 27 26 24 24 26 28 27 26 26 27 28 30 31
5 3 3 3 1 4 6 10 13 7 2 8 16 20 20 18 17 18 18 16 15 17 21 24 24 20 18 17 17 18 20 20 17 17 19 19 19 19 20 22 23 23 21 21 23 23 23 22 22 24 26 24 23 24 25 24 24 25 24 23 23 23 23 24 24 25 25 24 25 25 26 26 27 29 28 27 27 28 29 27 26 27 28 29 31 31
Wind_Direction
181 178 228 213 224 218 214 218 225 259 313 305 297 264 262 259 252 246 242 247 240 243 238 232 240 232 225 227 234 245 234 226 237 238 239 214 181 182 185 186 190 190 192 192 191 192 192 191 188 186 187 187 189 192 193 193 192 191 189 188 192 198 199 197 197 193 193 197 199 202 201 198 200 204 206 203 203 204 204 206 208 208 211 212 214 215
190 181 224 220 223 220 217 239 248 270 276 273 280 282 275 266 265 266 261 253 239 243 247 228 233 232 228 227 223 237 242 235 230 230 237 221 186 185 188 186 190 192 191 190 189 190 190 189 188 188 188 188 190 192 195 195 192 189 189 192 195 198 199 200 200 197 197 203 205 204 200 198 202 204 202 200 202 205 205 207 208 208 210 212 216 217
253 225 235 225 214 213 225 243 245 252 253 250 255 267 269 265 282 284 278 272 250 239 248 230 228 231 227 227 221 224 232 237 233 226 234 232 200 186 190 189 188 188 187 186 187 188 189 190 189 189 189 190 192 193 195 196 191 189 192 196 198 199 201 202 203 203 203 207 210 206 201 200 203 203 200 201 205 207 208 208 209 210 212 216 219 218
243 241 247 225 190 205 226 234 231 246 252 243 240 238 252 261 266 272 273 275 270 253 251 241 234 237 228 228 225 221 224 232 238 233 231 236 226 203 194 191 185 182 183 183 185 187 187 188 188 188 190 191 193 194 194 194 191 192 196 198 199 201 203 203 204 207 207 208 209 206 203 204 205 202 198 201 207 210 211 212 214 217 217 220 222 221
240 252 273 138 188 207 222 231 221 230 249 243 242 236 244 254 250 262 281 286 297 282 251 240 250 248 220 220 223 222 221 228 235 234 226 227 232 220 198 191 187 184 184 183 183 185 185 186 188 189 190 191 194 196 196 194 193 197 201 199 199 203 205 203 204 206 208 209 206 203 203 206 206 202 199 201 205 209 212 214 218 219 219 221 224 223
242 253 253 233 223 215 218 229 219 213 243 249 242 238 244 255 256 265 272 277 305 291 251 220 234 251 230 221 220 216 215 224 231 233 228 222 225 220 195 188 189 187 187 186 185 186 186 187 188 189 191 193 195 198 197 194 195 202 203 199 200 205 205 204 205 206 208 209 208 204 203 205 204 201 201 202 205 208 212 216 218 218 218 220 223 222
242 241 233 230 236 232 221 227 222 210 229 250 238 238 244 251 255 258 261 262 252 273 285 258 237 256 267 227 216 210 212 220 225 231 234 227 223 218 198 187 187 188 188 188 187 186 187 187 187 188 192 195 197 198 196 194 197 203 202 199 202 206 207 206 207 208 209 210 210 208 206 206 205 202 202 204 208 212 215 217 217 216 218 219 220 218
219 223 223 228 230 233 230 227 216 206 220 244 234 239 246 245 245 249 253 256 256 293 306 290 263 252 250 228 208 204 213 220 221 225 231 230 224 218 206 194 189 190 190 187 186 186 187 188 189 191 193 196 198 197 194 194 198 202 200 201 205 208 209 209 209 209 210 212 212 210 208 209 208 206 205 206 209 213 217 218 216 216 217 217 216 217
156 195 209 227 228 225 229 222 204 202 218 235 230 239 251 252 251 252 253 252 263 296 292 278 270 247 240 231 197 199 210 217 217 217 220 225 225 221 215 206 196 192 191 189 189 188 189 191 192 193 194 197 198 196 195 195 197 199 199 202 206 209 211 211 211 210 211 214 213 210 210 211 210 209 210 210 210 213 216 217 217 216 218 218 218 218
244 236 229 212 212 212 223 224 202 201 223 233 227 237 259 269 266 260 253 243 246 253 256 259 256 243 252 235 196 203 209 213 214 214 214 216 220 222 219 207 196 192 190 190 192 193 192 192 192 193 194 195 196 196 196 195 196 197 197 200 206 210 213 212 212 211 212 213 211 210 211 212 211 210 211 212 212 213 213 215 217 217 219 221 220 218
262 275 277 253 231 221 210 227 221 214 253 268 238 233 254 264 267 274 257 213 222 241 247 252 245 237 267 241 207 209 206 207 207 208 214 215 217 220 217 204 194 190 188 189 193 193 192 192 191 191 191 192 193 193 194 194 196 197 196 200 206 211 214 214 213 212 212 210 209 211 213 214 213 211 211 212 212 213 213 214 217 219 220 221 221 221
252 265 269 261 258 243 200 219 244 240 270 290 251 216 233 253 256 269 247 182 207 239 239 245 244 235 245 240 227 222 200 198 204 204 206 209 217 218 211 200 194 189 187 189 190 190 189 188 188 189 189 190 190 190 192 195 196 196 197 201 207 211 214 215 214 211 209 207 208 212 214 215 215 214 213 213 214 215 215 216 217 219 220 220 220 221
238 246 249 255 257 238 198 208 248 261 252 258 250 212 205 229 226 227 219 191 217 238 237 238 239 238 243 240 231 228 204 196 201 203 202 204 214 215 204 195 192 187 186 187 186 186 186 187 187 188 188 188 188 190 193 195 196 195 198 203 206 210 214 215 213 209 207 207 209 212 215 217 217 217 217 216 217 219 220 221 221 220 221 221 221 221
264 276 253 246 244 211 197 193 206 229 218 220 227 211 202 199 205 204 194 211 223 232 243 239 232 247 260 245 211 211 206 200 197 198 204 210 213 212 201 192 188 185 184 184 184 185 186 187 187 187 188 188 189 191 193 195 196 195 198 203 207 212 215 215 211 208 207 207 210 213 216 217 217 218 219 220 223 224 224 225 225 224 223 223 224 224
237 280 236 222 209 182 196 206 198 202 220 227 223 218 223 216 218 204 190 218 225 224 240 233 221 228 241 227 205 199 200 200 197 198 204 212 214 209 198 190 185 183 182 182 183 184 186 187 187 187 188 190 190 191 193 195 196 196 198 203 208 212 215 214 210 207 208 208 210 214 217 218 219 219 221 223 226 227 227 227 226 224 223 224 227 228
211 251 229 221 211 182 195 208 198 201 232 237 227 227 230 222 233 253 227 220 182 186 241 223 211 233 236 230 205 193 196 198 200 200 203 211 211 200 190 185 181 180 180 181 182 183 185 186 186 188 189 190 190 191 194 195 196 197 199 204 209 213 215 214 210 207 208 209 210 214 217 218 219 221 222 223 224 226 228 230 227 224 222 224 227 229
206 246 211 210 227 207 207 207 192 194 212 218 210 225 235 227 231 261 274 248 154 185 248 222 214 249 262 258 211 192 197 198 199 201 203 207 197 183 181 181 178 178 179 180 182 182 184 185 187 190 190 189 190 192 194 196 197 198 201 204 209 212 213 214 211 208 208 210 211 214 217 219 219 219 220 220 222 224 226 228 226 223 222 223 226 228
204 256 233 207 243 239 226 220 202 197 205 203 194 217 234 237 237 246 279 286 180 197 254 231 210 217 227 258 228 196 198 199 201 201 202 199 181 172 179 179 177 178 179 180 181 182 184 186 188 190 190 189 191 193 196 197 199 200 203 207 210 211 212 212 210 208 208 210 212 214 217 218 218 217 218 219 221 224 226 225 221 218 219 222 222 223
184 259 260 212 237 246 223 216 207 198 203 212 220 218 185 210 233 228 245 269 231 212 266 255 217 203 207 233 226 205 203 201 202 202 199 192 175 172 179 178 176 177 177 178 179 182 185 187 189 189 188 190 193 195 197 198 199 200 204 208 211 212 212 211 208 207 208 211 213 215 217 218 217 216 217 218 220 224 226 221 215 214 217 219 218 218
155 245 272 185 238 258 199 190 205 194 197 210 229 234 180 193 235 211 215 247 243 209 239 253 235 221 221 213 200 206 210 206 201 199 199 189 176 176 177 176 174 173 174 176 179 183 185 187 189 189 189 191 194 197 197 198 199 201 204 207 209 211 211 210 208 207 209 212 214 216 217 218 217 216 217 218 220 222 220 215 212 215 218 218 216 217
112 209 253 232 295 274 199 189 197 192 190 199 214 221 211 220 236 229 232 243 243 225 215 228 241 248 239 206 194 198 206 209 197 189 197 185 175 178 177 173 173 173 175 177 181 184 186 187 188 188 189 192 194 196 197 198 199 202 204 206 208 210 209 207 206 207 209 212 215 216 217 217 216 216 217 218 219 218 215 213 215 220 222 219 217 218
152 189 240 263 280 243 236 192 183 190 196 187 199 212 211 216 220 242 267 252 234 238 212 192 235 262 241 198 196 197 199 206 192 178 188 181 174 177 177 174 173 174 176 179 183 184 184 186 187 187 189 191 193 195 196 198 200 203 205 206 207 208 208 206 206 207 209 212 215 217 218 218 217 217 218 218 216 214 212 214 218 222 222 218 217 219
174 192 245 256 246 209 247 235 185 180 181 185 208 213 210 229 224 217 254 294 287 272 255 191 246 271 245 195 196 204 198 195 184 175 177 176 174 175 176 175 174 175 177 180 182 183 184 186 186 186 188 191 193 194 195 198 201 204 205 205 206 207 207 207 207 208 210 211 213 215 218 220 220 219 218 216 214 213 212 214 218 220 219 216 216 220
174 219 243 255 266 186 223 238 189 145 126 173 218 215 213 233 237 234 257 297 311 290 280 274 265 268 268 227 204 210 201 186 181 178 173 168 170 171 172 173 173 173 176 179 181 182 184 185 184 185 188 191 192 193 195 199 202 203 204 204 206 206 205 206 207 208 210 211 212 215 218 221 220 217 216 216 214 211 211 212 215 216 215 214 217 222
178 212 224 261 15 76 176 179 154 138 141 182 215 229 235 242 257 274 275 262 262 258 241 237 254 253 271 293 255 203 182 181 188 182 171 162 162 167 168 169 170 171 174 177 180 181 182 182 182 185 188 191 192 194 196 200 202 203 204 204 205 204 203 204 206 208 209 210 212 215 218 218 215 215 216 215 211 208 208 210 213 215 213 212 217 223
179 215 196 159 87 93 137 155 153 160 167 185 221 231 238 249 257 265 278 263 259 272 250 227 247 263 292 325 310 198 171 179 195 183 168 159 158 163 165 166 167 170 174 177 179 180 181 182 183 185 189 191 192 194 197 200 202 203 203 203 204 204 203 203 206 209 209 211 213 215 217 214 211 213 216 211 204 204 206 208 212 214 212 213 218 222
171 240 215 204 153 146 179 208 263 220 148 187 220 229 245 256 252 253 263 254 257 301 293 251 250 280 301 329 317 240 184 174 178 170 157 153 156 160 163 165 168 172 176 178 179 180 181 182 184 186 189 191 193 195 198 200 201 201 201 202 203 204 204 205 208 210 210 212 213 213 215 213 209 212 215 207 200 203 206 208 211 213 212 214 218 222
36 301 248 245 207 224 219 219 242 230 171 189 208 234 268 265 268 268 253 245 260 305 284 274 298 284 267 295 310 268 214 178 168 160 153 152 156 160 163 166 170 174 176 178 179 181 182 182 184 186 188 191 193 195 197 199 200 201 201 202 202 203 205 205 205 206 207 209 210 211 213 212 208 211 215 208 201 202 206 208 210 210 211 215 219 223
100 219 253 292 297 275 242 215 222 213 193 179 164 194 255 267 281 272 251 257 276 267 258 282 322 305 260 280 297 268 238 195 169 159 155 154 156 159 161 165 169 173 175 177 180 181 182 183 184 186 188 190 192 193 195 196 198 199 200 201 201 202 203 203 203 203 203 206 208 211 213 211 209 211 215 211 203 202 205 207 207 208 210 214 220 224
118 225 260 310 306 287 255 214 210 204 197 157 147 200 236 257 268 259 260 279 289 281 273 289 315 296 263 270 284 277 241 177 157 151 150 150 153 156 159 163 168 172 175 178 181 182 183 183 184 186 188 190 192 193 194 194 196 198 199 199 198 198 200 202 201 201 202 205 209 211 210 210 210 212 214 212 205 202 204 205 204 206 209 212 217 219
80 274 287 11 330 292 287 276 228 190 147 115 174 225 238 275 284 283 290 293 303 297 285 297 319 300 278 284 292 286 156 138 136 141 146 150 154 156 160 165 169 174 178 180 182 182 183 184 185 186 188 192 194 195 194 193 195 197 198 198 197 197 199 199 199 200 203 206 208 209 209 209 211 213 215 213 205 201 202 203 203 205 208 210 211 213
55 315 312 40 25 287 305 350 330 110 88 61 272 249 245 271 277 280 287 290 296 282 285 322 338 291 294 310 313 337 122 134 139 145 150 154 157 159 162 168 172 176 179 181 181 182 183 184 185 187 190 193 195 194 193 192 192 194 196 197 198 197 196 197 198 201 204 206 208 208 208 208 210 213 217 213 203 200 200 201 203 205 207 208 208 208
131 94 342 39 28 273 303 345 353 72 63 354 265 225 205 227 261 288 290 273 217 227 257 90 230 259 291 312 328 33 97 132 140 147 154 157 161 164 166 171 175 178 179 181 181 182 183 185 187 190 192 193 194 194 194 193 191 193 196 197 197 196 195 196 198 201 204 206 208 207 206 208 211 213 216 213 202 199 200 200 203 205 207 207 207 208
146 108 71 21 50 283 311 336 19 78 74 250 236 193 177 212 260 261 262 257 226 203 228 243 258 287 308 311 350 62 85 118 127 146 159 162 165 168 171 174 177 179 181 182 183 184 185 187 189 191 192 194 194 194 194 192 191 192 194 194 194 194 195 197 199 201 204 206 207 207 207 209 213 214 216 213 203 198 199 201 204 206 207 208 208 208
119 104 83 30 61 298 319 359 67 128 217 245 262 226 180 221 248 244 268 279 262 223 244 285 307 303 294 303 18 83 87 98 110 129 157 167 170 170 173 176 178 180 182 183 184 185 185 187 188 189 192 193 193 192 191 190 191 191 193 194 193 194 197 199 199 199 201 203 205 207 208 210 213 214 216 216 206 200 200 202 205 206 208 210 212 212
125 111 82 47 348 326 348 21 90 226 261 291 303 283 221 245 250 337 322 299 275 242 175 323 296 282 283 307 354 96 101 97 99 108 140 169 176 174 174 178 180 182 184 185 186 186 187 189 191 192 194 193 191 191 189 189 191 192 193 195 196 196 200 202 200 200 202 202 204 207 210 210 212 215 219 219 209 202 201 203 206 209 211 213 214 212
120 117 87 32 352 20 2 333 279 280 317 327 302 302 318 246 186 133 225 279 278 268 169 188 265 266 262 290 334 73 99 98 81 77 124 162 182 180 178 181 183 185 188 189 190 191 191 193 194 195 195 193 190 190 189 189 192 193 193 195 198 201 202 202 203 205 206 206 208 209 211 211 212 216 221 222 212 204 204 205 207 210 214 215 214 211
115 132 133 108 9 63 32 332 336 360 333 261 271 311 352 326 308 183 188 256 278 252 225 215 227 234 220 209 185 59 77 91 80 54 122 155 182 186 184 185 186 188 190 189 190 190 190 192 194 194 194 191 188 189 190 190 192 193 194 197 201 202 202 200 201 204 205 206 209 210 210 211 216 221 225 223 214 207 207 208 210 212 214 216 218 216
61 46 116 118 90 93 88 339 336 212 241 261 300 316 327 327 324 266 182 257 260 237 237 221 201 199 210 192 153 106 74 97 181 276 75 147 178 188 192 194 191 191 192 191 191 191 190 191 192 191 191 188 184 187 192 193 193 195 197 200 201 201 200 200 201 203 206 208 210 211 211 215 222 228 231 226 216 210 210 210 211 213 214 216 220 221
41 4 85 134 151 125 124 229 260 233 260 306 320 314 315 321 333 112 169 243 244 268 274 240 187 181 203 195 143 98 91 149 201 295 342 143 178 185 193 199 198 196 196 194 194 193 192 191 189 187 187 186 184 187 193 194 194 195 198 199 199 199 198 200 202 206 210 212 212 212 216 223 228 233 237 230 216 211 212 213 213 214 213 213 218 222
7 311 272 191 164 140 141 186 286 263 270 323 324 316 318 326 18 141 191 254 279 294 287 235 162 159 173 134 92 89 104 119 136 150 345 173 170 177 192 202 201 200 199 197 195 193 191 189 189 189 187 186 186 188 192 194 195 196 197 197 197 198 200 201 204 207 210 212 214 217 221 227 231 237 242 233 217 212 214 215 216 216 215 214 217 219
353 316 308 281 198 168 149 146 301 269 284 344 331 325 335 12 152 202 291 305 305 298 158 119 121 121 95 86 96 113 115 112 118 135 146 154 158 178 208 201 192 193 197 197 196 195 191 186 186 186 185 185 188 191 193 195 194 195 197 196 194 196 201 205 206 206 206 210 216 220 222 224 231 239 240 229 218 215 215 215 216 217 217 217 218 217
332 315 313 293 258 109 102 78 11 251 302 340 338 338 9 44 266 290 311 311 311 353 101 105 112 122 114 106 108 113 112 109 112 117 120 136 163 176 198 195 182 179 180 181 182 185 185 183 182 183 184 185 189 192 194 195 194 194 197 197 195 194 197 203 206 204 205 211 215 217 219 224 232 239 236 225 218 216 215 214 215 216 217 218 219 217
9 350 300 291 309 29 84 117 135 216 287 322 333 318 326 322 309 317 329 313 313 3 82 105 121 126 128 126 119 110 104 101 102 107 107 108 128 155 172 181 179 175 169 165 165 168 170 171 174 178 182 184 188 192 196 197 196 194 197 201 203 202 201 203 204 203 206 212 214 216 222 227 232 237 234 224 217 216 216 215 215 215 216 219 223 221
312 216 202 249 282 263 203 226 255 283 298 312 314 297 326 336 334 345 7 344 320 338 91 109 122 130 133 131 122 110 103 102 102 105 108 111 130 153 157 157 164 168 166 164 167 171 173 173 173 176 182 184 188 195 199 199 196 195 197 203 207 207 204 201 200 203 211 214 212 215 225 229 230 233 230 223 218 216 216 216 217 218 220 222 223 222
271 213 185 218 285 286 255 248 272 301 314 327 344 353 4 5 347 353 20 4 332 333 104 112 117 129 132 131 124 114 110 113 112 110 118 129 141 151 153 149 154 167 172 175 179 181 182 182 180 183 186 188 192 198 198 197 196 194 195 203 206 204 202 201 201 205 211 211 208 215 229 231 229 229 225 222 221 219 219 220 222 222 223 224 223 223
300 237 204 233 324 328 289 272 307 318 320 333 351 5 26 37 352 357 32 21 336 331 104 113 109 123 130 127 120 112 111 119 125 129 137 141 140 144 148 148 151 161 170 177 179 177 178 180 182 185 187 189 197 198 192 191 194 195 197 204 206 203 202 203 205 206 207 207 209 217 228 232 231 228 225 223 222 221 221 224 226 227 227 227 226 226
332 329 304 281 325 306 259 295 323 322 320 342 1 8 21 36 12 15 48 44 344 345 92 106 100 109 121 120 116 113 114 120 131 138 141 141 141 143 146 148 152 156 162 170 173 171 175 180 181 182 185 188 193 192 186 186 193 199 204 205 203 202 204 206 207 207 206 208 211 216 223 229 231 230 227 227 225 221 220 221 224 226 230 231 231 231
309 319 318 338 341 320 295 315 327 325 336 2 13 17 22 31 35 46 60 52 5 27 83 96 94 95 104 109 112 115 119 126 136 140 140 143 146 146 148 152 154 155 159 167 170 170 175 177 177 179 183 186 189 189 188 189 191 196 201 201 199 203 210 209 208 208 209 211 215 219 222 226 230 231 231 231 226 220 218 220 223 227 232 235 236 238
316 311 344 39 14 320 284 313 333 340 331 349 2 15 25 33 47 62 67 57 38 57 81 91 93 94 98 106 112 117 122 129 137 139 141 146 148 148 149 151 148 146 150 156 160 168 173 171 170 175 178 179 184 188 189 190 192 194 198 200 201 207 212 211 209 210 211 213 217 222 225 228 230 233 234 234 228 220 216 218 222 227 232 236 237 238
335 325 357 28 303 262 290 324 342 0 324 319 350 15 30 38 51 65 70 67 61 65 77 86 90 92 97 105 115 122 126 131 139 143 143 144 145 146 149 148 144 144 150 155 159 166 169 165 164 170 173 173 177 183 185 188 192 194 197 202 207 211 211 211 211 212 214 219 224 228 232 234 236 236 236 235 232 224 217 215 219 223 228 231 234 235